Tracking 19920 objects as of 15-Oct-2019
HD Live streaming from Space Station
objects crossing your sky now

IRIDIUM 33 DEB

Track IRIDIUM 33 DEB now!
10-day predictions


NORAD ID: 39796
Int'l Code: 1997-051ABD
Perigee: 689.4 km
Apogee: 793.1 km
Inclination: 86.4 °
Period: 99.5 minutes
Semi major axis: 7112 km
RCS: 0.0055 m2 (small)
Launch date: September 14, 1997
Source: United States (US)
Launch site: TYURATAM MISSILE AND SPACE COMPLEX (TTMTR)

Note: This is SATELLITE DEBRIS
aabbcc
Your satellite tracking list
Your tracking list is empty




NASA's NSSDC Master Catalog

Two Line Element Set (TLE):
1 39796U 97051ABD 18137.76716730 +.00002093 +00000-0 +54665-3 0  9996
2 39796 086.3743 134.3178 0072920 237.6863 243.7260 14.47417544650667
Source of the keplerian elements: AFSPC